Time,TemperatureF,DewpointF,PressureIn,WindDirection,WindDirectionDegrees,WindSpeedMPH,WindSpeedGustMPH,Humidity,HourlyPrecipIn,Conditions,Clouds,dailyrainin,SoftwareType,DateUTC
2013-04-18 00:01:00,50.7,34.2,30.33,NE,45,0.7,1.6,53,0.00,,,0.00,pywws,2013-04-18 04:01:00,
2013-04-18 00:02:00,50.7,34.2,30.33,NE,45,0.7,1.6,53,0.00,,,0.00,pywws,2013-04-18 04:02:00,
2013-04-18 00:03:00,50.7,34.2,30.33,NE,45,0.7,1.6,53,0.00,,,0.00,pywws,2013-04-18 04:03:00,
2013-04-18 00:08:00,49.8,34.3,30.33,East,90,0.0,1.6,55,0.00,,,0.00,pywws,2013-04-18 04:08:00,
2013-04-18 00:11:00,49.8,34.8,30.34,SE,135,0.7,1.6,56,0.00,,,0.00,pywws,2013-04-18 04:11:00,
2013-04-18 00:17:00,50.0,34.9,30.34,South,180,0.7,1.6,56,0.00,,,0.00,pywws,2013-04-18 04:17:00,
2013-04-18 00:23:00,50.2,34.2,30.34,SE,135,1.6,2.2,54,0.00,,,0.00,pywws,2013-04-18 04:23:00,
2013-04-18 00:28:00,50.4,34.4,30.34,SE,135,0.7,1.6,54,0.00,,,0.00,pywws,2013-04-18 04:28:00,
2013-04-18 00:34:00,50.2,34.2,30.34,SE,135,0.7,1.6,54,0.00,,,0.00,pywws,2013-04-18 04:34:00,
2013-04-18 00:39:00,49.6,34.6,30.34,South,180,1.6,2.2,56,0.00,,,0.00,pywws,2013-04-18 04:39:00,
2013-04-18 00:45:00,49.3,34.7,30.34,East,90,0.7,1.6,57,0.00,,,0.00,pywws,2013-04-18 04:45:00,
2013-04-18 00:51:00,48.9,35.2,30.34,South,180,0.7,1.6,59,0.00,,,0.00,pywws,2013-04-18 04:51:00,
2013-04-18 00:56:00,48.7,35.5,30.34,NE,45,0.0,0.7,60,0.00,,,0.00,pywws,2013-04-18 04:56:00,
2013-04-18 01:02:00,48.6,35.7,30.34,East,90,0.7,1.6,61,0.00,,,0.00,pywws,2013-04-18 05:02:00,
2013-04-18 01:07:00,48.7,35.9,30.34,East,90,0.7,1.6,61,0.00,,,0.00,pywws,2013-04-18 05:07:00,
2013-04-18 01:13:00,48.6,35.3,30.34,NE,45,0.0,0.7,60,0.00,,,0.00,pywws,2013-04-18 05:13:00,
2013-04-18 01:19:00,48.6,35.3,30.34,East,90,0.7,1.6,60,0.00,,,0.00,pywws,2013-04-18 05:19:00,
2013-04-18 01:24:00,48.2,35.0,30.33,East,90,0.0,0.7,60,0.00,,,0.00,pywws,2013-04-18 05:24:00,
2013-04-18 01:30:00,48.0,35.6,30.33,East,90,0.7,1.6,62,0.00,,,0.00,pywws,2013-04-18 05:30:00,
2013-04-18 01:35:00,47.8,35.9,30.33,East,90,0.0,0.7,63,0.00,,,0.00,pywws,2013-04-18 05:35:00,
2013-04-18 01:41:00,47.7,36.1,30.33,East,90,0.0,0.7,64,0.00,,,0.00,pywws,2013-04-18 05:41:00,
2013-04-18 01:47:00,47.5,35.9,30.33,East,90,0.0,0.7,64,0.00,,,0.00,pywws,2013-04-18 05:47:00,
2013-04-18 01:53:00,47.1,36.0,30.33,East,90,0.7,1.6,65,0.00,,,0.00,pywws,2013-04-18 05:53:00,
2013-04-18 01:59:00,46.8,35.6,30.32,East,90,0.0,0.7,65,0.00,,,0.00,pywws,2013-04-18 05:59:00,
2013-04-18 02:04:00,46.8,35.6,30.32,East,90,0.0,0.0,65,0.00,,,0.00,pywws,2013-04-18 06:04:00,
2013-04-18 02:10:00,46.6,35.8,30.32,North,0,0.0,0.7,66,0.00,,,0.00,pywws,2013-04-18 06:10:00,
2013-04-18 02:15:00,46.6,35.8,30.32,East,90,0.7,1.6,66,0.00,,,0.00,pywws,2013-04-18 06:15:00,
2013-04-18 02:21:00,46.4,35.7,30.32,East,90,0.7,1.6,66,0.00,,,0.00,pywws,2013-04-18 06:21:00,
2013-04-18 02:26:00,46.4,35.7,30.32,East,90,0.7,1.6,66,0.00,,,0.00,pywws,2013-04-18 06:26:00,
2013-04-18 02:31:00,46.2,35.1,30.32,East,90,0.0,0.7,65,0.00,,,0.00,pywws,2013-04-18 06:31:00,
2013-04-18 02:37:00,46.0,34.9,30.33,East,90,0.0,0.7,65,0.00,,,0.00,pywws,2013-04-18 06:37:00,
2013-04-18 02:43:00,46.0,34.9,30.33,NE,45,0.0,0.7,65,0.00,,,0.00,pywws,2013-04-18 06:43:00,
2013-04-18 02:48:00,45.5,34.4,30.34,East,90,0.7,1.6,65,0.00,,,0.00,pywws,2013-04-18 06:48:00,
2013-04-18 02:54:00,45.3,35.0,30.34,East,90,0.7,1.6,67,0.00,,,0.00,pywws,2013-04-18 06:54:00,
2013-04-18 02:59:00,45.3,35.4,30.34,East,90,0.0,0.7,68,0.00,,,0.00,pywws,2013-04-18 06:59:00,
2013-04-18 03:05:00,45.3,35.4,30.34,East,90,0.0,0.0,68,0.00,,,0.00,pywws,2013-04-18 07:05:00,
2013-04-18 03:11:00,45.1,35.6,30.35,East,90,0.0,0.0,69,0.00,,,0.00,pywws,2013-04-18 07:11:00,
2013-04-18 03:16:00,44.8,35.6,30.34,East,90,0.0,0.7,70,0.00,,,0.00,pywws,2013-04-18 07:16:00,
2013-04-18 03:22:00,44.6,35.8,30.35,East,90,0.0,0.7,71,0.00,,,0.00,pywws,2013-04-18 07:22:00,
2013-04-18 03:28:00,44.6,36.1,30.35,NE,45,0.0,0.7,72,0.00,,,0.00,pywws,2013-04-18 07:28:00,
2013-04-18 03:34:00,44.4,36.3,30.35,NE,45,0.0,0.7,73,0.00,,,0.00,pywws,2013-04-18 07:34:00,
2013-04-18 03:40:00,44.4,36.7,30.34,NE,45,0.0,0.7,74,0.00,,,0.00,pywws,2013-04-18 07:40:00,
2013-04-18 03:46:00,44.4,37.0,30.34,East,90,0.0,0.7,75,0.00,,,0.00,pywws,2013-04-18 07:46:00,
2013-04-18 03:51:00,44.2,36.8,30.34,NE,45,0.7,1.6,75,0.00,,,0.00,pywws,2013-04-18 07:51:00,
2013-04-18 03:57:00,44.2,37.2,30.34,East,90,0.0,0.0,76,0.00,,,0.00,pywws,2013-04-18 07:57:00,
2013-04-18 04:03:00,44.2,37.2,30.34,NE,45,0.0,0.7,76,0.00,,,0.00,pywws,2013-04-18 08:03:00,
2013-04-18 04:08:00,44.1,37.6,30.35,NE,45,0.0,0.0,78,0.00,,,0.00,pywws,2013-04-18 08:08:00,
2013-04-18 04:14:00,44.1,38.0,30.34,NNE,22,0.0,1.6,79,0.00,,,0.00,pywws,2013-04-18 08:14:00,
2013-04-18 04:19:00,44.1,38.3,30.35,NE,45,0.0,0.7,80,0.00,,,0.00,pywws,2013-04-18 08:19:00,
2013-04-18 04:25:00,44.2,38.8,30.34,NE,45,0.0,0.0,81,0.00,,,0.00,pywws,2013-04-18 08:25:00,
2013-04-18 04:31:00,43.9,38.7,30.35,NE,45,0.0,0.0,82,0.00,,,0.00,pywws,2013-04-18 08:31:00,
2013-04-18 04:36:00,43.5,38.4,30.35,NE,45,0.0,1.6,82,0.00,,,0.00,pywws,2013-04-18 08:36:00,
2013-04-18 04:42:00,43.3,38.2,30.35,NE,45,0.0,0.0,82,0.00,,,0.00,pywws,2013-04-18 08:42:00,
2013-04-18 04:48:00,43.5,39.0,30.35,NE,45,0.0,0.0,84,0.00,,,0.00,pywws,2013-04-18 08:48:00,
2013-04-18 04:54:00,43.3,38.8,30.35,NW,315,0.0,0.7,84,0.00,,,0.00,pywws,2013-04-18 08:54:00,
2013-04-18 05:00:00,43.7,39.5,30.35,NE,45,0.0,0.0,85,0.00,,,0.00,pywws,2013-04-18 09:00:00,
2013-04-18 05:06:00,43.7,39.5,30.34,NE,45,0.0,0.7,85,0.00,,,0.00,pywws,2013-04-18 09:06:00,
2013-04-18 05:11:00,43.7,39.8,30.34,NE,45,0.0,0.7,86,0.00,,,0.00,pywws,2013-04-18 09:11:00,
2013-04-18 05:17:00,43.7,39.8,30.34,North,0,0.0,0.7,86,0.00,,,0.00,pywws,2013-04-18 09:17:00,
2013-04-18 05:23:00,43.5,39.6,30.34,NW,315,0.7,1.6,86,0.00,,,0.00,pywws,2013-04-18 09:23:00,
2013-04-18 05:28:00,43.5,39.9,30.33,NE,45,0.0,0.7,87,0.00,,,0.00,pywws,2013-04-18 09:28:00,
2013-04-18 05:34:00,43.5,39.9,30.34,NE,45,0.0,0.0,87,0.00,,,0.00,pywws,2013-04-18 09:34:00,
2013-04-18 05:39:00,43.5,39.9,30.34,East,90,0.7,1.6,87,0.00,,,0.00,pywws,2013-04-18 09:39:00,
2013-04-18 05:45:00,43.5,40.2,30.34,NE,45,0.0,0.7,88,0.00,,,0.00,pywws,2013-04-18 09:45:00,
2013-04-18 05:51:00,43.3,40.0,30.34,NE,45,0.0,0.0,88,0.00,,,0.00,pywws,2013-04-18 09:51:00,
2013-04-18 05:56:00,43.2,39.9,30.35,NE,45,0.0,0.0,88,0.00,,,0.00,pywws,2013-04-18 09:56:00,
2013-04-18 06:02:00,43.2,39.9,30.35,East,90,0.7,1.6,88,0.00,,,0.00,pywws,2013-04-18 10:02:00,
2013-04-18 06:08:00,43.2,40.1,30.35,NE,45,0.0,0.0,89,0.00,,,0.00,pywws,2013-04-18 10:08:00,
2013-04-18 06:14:00,43.2,40.1,30.35,NE,45,0.0,0.7,89,0.00,,,0.00,pywws,2013-04-18 10:14:00,
2013-04-18 06:20:00,43.5,40.8,30.35,NE,45,0.0,0.0,90,0.00,,,0.00,pywws,2013-04-18 10:20:00,
2013-04-18 06:26:00,43.9,41.4,30.36,NE,45,0.0,0.7,91,0.00,,,0.00,pywws,2013-04-18 10:26:00,
2013-04-18 06:31:00,44.2,41.8,30.36,NE,45,0.0,1.6,91,0.00,,,0.00,pywws,2013-04-18 10:31:00,
2013-04-18 06:37:00,44.6,41.9,30.36,NE,45,0.0,1.6,90,0.00,,,0.00,pywws,2013-04-18 10:37:00,
2013-04-18 06:43:00,45.0,42.2,30.37,NE,45,0.0,0.0,90,0.00,,,0.00,pywws,2013-04-18 10:43:00,
2013-04-18 06:48:00,45.3,42.6,30.36,North,0,0.0,0.7,90,0.00,,,0.00,pywws,2013-04-18 10:48:00,
2013-04-18 06:54:00,45.7,42.9,30.36,NE,45,0.0,0.7,90,0.00,,,0.00,pywws,2013-04-18 10:54:00,
2013-04-18 06:59:00,46.0,43.0,30.37,NE,45,1.6,3.1,89,0.00,,,0.00,pywws,2013-04-18 10:59:00,
2013-04-18 07:05:00,46.2,42.9,30.36,NE,45,0.0,0.7,88,0.00,,,0.00,pywws,2013-04-18 11:05:00,
2013-04-18 07:11:00,46.4,42.7,30.36,North,0,0.0,1.6,87,0.00,,,0.00,pywws,2013-04-18 11:11:00,
2013-04-18 07:16:00,46.8,43.1,30.37,NE,45,0.0,1.6,87,0.00,,,0.00,pywws,2013-04-18 11:16:00,
2013-04-18 07:22:00,46.9,43.0,30.37,NE,45,0.7,1.6,86,0.00,,,0.00,pywws,2013-04-18 11:22:00,
2013-04-18 07:28:00,47.3,43.3,30.37,North,0,0.0,0.7,86,0.00,,,0.00,pywws,2013-04-18 11:28:00,
2013-04-18 07:34:00,47.5,43.5,30.37,East,90,0.7,1.6,86,0.00,,,0.00,pywws,2013-04-18 11:34:00,
2013-04-18 07:39:00,47.8,43.6,30.37,West,270,0.7,1.6,85,0.00,,,0.00,pywws,2013-04-18 11:39:00,
2013-04-18 07:45:00,48.2,43.3,30.36,West,270,0.7,1.6,83,0.00,,,0.00,pywws,2013-04-18 11:45:00,
2013-04-18 07:51:00,48.7,43.5,30.36,East,90,0.0,0.7,82,0.00,,,0.00,pywws,2013-04-18 11:51:00,
2013-04-18 07:56:00,49.1,43.5,30.36,North,0,0.7,1.6,81,0.00,,,0.00,pywws,2013-04-18 11:56:00,
2013-04-18 08:02:00,49.6,43.7,30.36,SW,225,0.7,1.6,80,0.00,,,0.00,pywws,2013-04-18 12:02:00,
2013-04-18 08:08:00,50.0,43.1,30.36,North,0,0.7,2.2,77,0.00,,,0.00,pywws,2013-04-18 12:08:00,
2013-04-18 08:14:00,50.4,42.7,30.36,NE,45,0.0,0.7,75,0.00,,,0.00,pywws,2013-04-18 12:14:00,
2013-04-18 08:19:00,50.7,43.1,30.37,NE,45,0.0,0.7,75,0.00,,,0.00,pywws,2013-04-18 12:19:00,
2013-04-18 08:25:00,51.3,42.9,30.37,SW,225,0.7,2.2,73,0.00,,,0.00,pywws,2013-04-18 12:25:00,
2013-04-18 08:31:00,51.6,42.2,30.36,SW,225,1.6,3.1,70,0.00,,,0.00,pywws,2013-04-18 12:31:00,
2013-04-18 08:36:00,52.2,41.2,30.36,NW,315,1.6,3.1,66,0.00,,,0.00,pywws,2013-04-18 12:36:00,
2013-04-18 08:42:00,52.7,40.5,30.36,South,180,2.2,3.8,63,0.00,,,0.00,pywws,2013-04-18 12:42:00,
2013-04-18 08:48:00,53.1,40.4,30.36,SE,135,2.2,3.8,62,0.00,,,0.00,pywws,2013-04-18 12:48:00,
2013-04-18 08:54:00,54.0,39.5,30.36,West,270,1.6,3.1,58,0.00,,,0.00,pywws,2013-04-18 12:54:00,
2013-04-18 08:59:00,54.3,39.4,30.36,SW,225,2.2,5.4,57,0.00,,,0.00,pywws,2013-04-18 12:59:00,
2013-04-18 09:05:00,55.6,39.2,30.35,West,270,1.6,2.2,54,0.00,,,0.00,pywws,2013-04-18 13:05:00,
2013-04-18 09:11:00,57.4,39.9,30.36,NW,315,1.6,3.1,52,0.00,,,0.00,pywws,2013-04-18 13:11:00,
2013-04-18 09:16:00,57.4,38.4,30.36,South,180,2.2,3.1,49,0.00,,,0.00,pywws,2013-04-18 13:16:00,
2013-04-18 09:22:00,57.0,37.5,30.36,NE,45,1.6,3.1,48,0.00,,,0.00,pywws,2013-04-18 13:22:00,
2013-04-18 09:28:00,58.1,38.0,30.36,SW,225,2.2,3.1,47,0.00,,,0.00,pywws,2013-04-18 13:28:00,
2013-04-18 09:34:00,57.9,36.7,30.36,SW,225,1.6,2.2,45,0.00,,,0.00,pywws,2013-04-18 13:34:00,
2013-04-18 09:39:00,57.9,36.7,30.36,North,0,1.6,3.1,45,0.00,,,0.00,pywws,2013-04-18 13:39:00,
2013-04-18 09:45:00,58.5,37.2,30.36,West,270,2.2,4.5,45,0.00,,,0.00,pywws,2013-04-18 13:45:00,
2013-04-18 09:51:00,59.2,36.7,30.36,SE,135,1.6,3.8,43,0.00,,,0.00,pywws,2013-04-18 13:51:00,
2013-04-18 09:56:00,59.4,36.9,30.36,SW,225,1.6,3.1,43,0.00,,,0.00,pywws,2013-04-18 13:56:00,
2013-04-18 10:02:00,59.2,36.7,30.36,SW,225,1.6,2.2,43,0.00,,,0.00,pywws,2013-04-18 14:02:00,
2013-04-18 10:08:00,59.0,36.5,30.36,SW,225,2.2,3.1,43,0.00,,,0.00,pywws,2013-04-18 14:08:00,
2013-04-18 10:14:00,58.1,36.3,30.37,SW,225,2.2,3.8,44,0.00,,,0.00,pywws,2013-04-18 14:14:00,
2013-04-18 10:19:00,57.4,36.2,30.37,NE,45,1.6,3.1,45,0.00,,,0.00,pywws,2013-04-18 14:19:00,
2013-04-18 10:25:00,57.2,36.6,30.37,SW,225,2.2,3.8,46,0.00,,,0.00,pywws,2013-04-18 14:25:00,
2013-04-18 10:31:00,57.2,37.2,30.37,West,270,2.2,3.8,47,0.00,,,0.00,pywws,2013-04-18 14:31:00,
2013-04-18 10:36:00,57.2,37.2,30.37,South,180,1.6,3.1,47,0.00,,,0.00,pywws,2013-04-18 14:36:00,
2013-04-18 10:42:00,57.2,37.2,30.37,SW,225,1.6,3.1,47,0.00,,,0.00,pywws,2013-04-18 14:42:00,
2013-04-18 10:48:00,57.7,37.6,30.37,SE,135,1.6,3.8,47,0.00,,,0.00,pywws,2013-04-18 14:48:00,
2013-04-18 10:54:00,57.7,36.5,30.37,SW,225,3.1,3.8,45,0.00,,,0.00,pywws,2013-04-18 14:54:00,
2013-04-18 10:59:00,57.9,36.7,30.37,West,270,2.2,3.8,45,0.00,,,0.00,pywws,2013-04-18 14:59:00,
2013-04-18 11:05:00,58.3,37.0,30.36,SW,225,3.8,5.4,45,0.00,,,0.00,pywws,2013-04-18 15:05:00,
2013-04-18 11:11:00,58.8,37.5,30.37,South,180,3.8,5.4,45,0.00,,,0.00,pywws,2013-04-18 15:11:00,
2013-04-18 11:16:00,59.0,36.5,30.37,South,180,3.1,4.5,43,0.00,,,0.00,pywws,2013-04-18 15:16:00,
2013-04-18 11:22:00,59.2,36.7,30.36,NW,315,2.2,3.8,43,0.00,,,0.00,pywws,2013-04-18 15:22:00,
2013-04-18 11:28:00,59.9,36.8,30.36,SW,225,2.2,5.4,42,0.00,,,0.00,pywws,2013-04-18 15:28:00,
2013-04-18 11:34:00,60.6,38.0,30.35,South,180,2.2,3.1,43,0.00,,,0.00,pywws,2013-04-18 15:34:00,
2013-04-18 11:39:00,61.7,38.4,30.36,NW,315,2.2,5.4,42,0.00,,,0.00,pywws,2013-04-18 15:39:00,
2013-04-18 11:45:00,63.3,37.9,30.36,SW,225,1.6,2.2,39,0.00,,,0.00,pywws,2013-04-18 15:45:00,
2013-04-18 11:51:00,63.0,35.6,30.35,NW,315,2.2,3.8,36,0.00,,,0.00,pywws,2013-04-18 15:51:00,
2013-04-18 11:56:00,62.8,36.1,30.35,West,270,1.6,3.1,37,0.00,,,0.00,pywws,2013-04-18 15:56:00,
2013-04-18 12:02:00,62.2,36.3,30.35,SW,225,1.6,3.1,38,0.00,,,0.00,pywws,2013-04-18 16:02:00,
2013-04-18 12:08:00,61.5,35.0,30.35,SW,225,3.1,4.5,37,0.00,,,0.00,pywws,2013-04-18 16:08:00,
2013-04-18 12:14:00,60.8,35.7,30.35,NW,315,1.6,3.1,39,0.00,,,0.00,pywws,2013-04-18 16:14:00,
2013-04-18 12:19:00,61.3,36.8,30.34,West,270,1.6,2.2,40,0.00,,,0.00,pywws,2013-04-18 16:19:00,
2013-04-18 12:25:00,61.3,35.5,30.34,SSE,158,3.1,6.0,38,0.00,,,0.00,pywws,2013-04-18 16:25:00,
2013-04-18 12:31:00,60.6,34.9,30.34,NW,315,2.2,3.8,38,0.00,,,0.00,pywws,2013-04-18 16:31:00,
2013-04-18 12:36:00,60.6,36.2,30.34,SE,135,2.2,6.0,40,0.00,,,0.00,pywws,2013-04-18 16:36:00,
2013-04-18 12:42:00,61.2,36.6,30.34,SE,135,2.2,3.8,40,0.00,,,0.00,pywws,2013-04-18 16:42:00,
2013-04-18 12:48:00,61.2,36.0,30.34,SW,225,2.2,3.8,39,0.00,,,0.00,pywws,2013-04-18 16:48:00,
2013-04-18 12:54:00,61.3,37.4,30.34,South,180,2.2,3.8,41,0.00,,,0.00,pywws,2013-04-18 16:54:00,
2013-04-18 12:59:00,60.3,35.8,30.33,South,180,4.5,7.6,40,0.00,,,0.00,pywws,2013-04-18 16:59:00,
2013-04-18 13:05:00,59.5,36.4,30.33,East,90,3.1,5.4,42,0.00,,,0.00,pywws,2013-04-18 17:05:00,
2013-04-18 13:11:00,60.3,38.3,30.34,SW,225,3.8,6.0,44,0.00,,,0.00,pywws,2013-04-18 17:11:00,
2013-04-18 13:16:00,60.8,37.0,30.33,SW,225,4.5,9.2,41,0.00,,,0.00,pywws,2013-04-18 17:16:00,
2013-04-18 13:22:00,61.9,37.9,30.33,NW,315,3.8,5.4,41,0.00,,,0.00,pywws,2013-04-18 17:22:00,
2013-04-18 13:28:00,61.7,37.1,30.33,West,270,3.8,6.9,40,0.00,,,0.00,pywws,2013-04-18 17:28:00,
2013-04-18 13:34:00,60.3,36.5,30.33,South,180,3.1,7.6,41,0.00,,,0.00,pywws,2013-04-18 17:34:00,
2013-04-18 13:39:00,59.7,36.0,30.32,East,90,3.8,6.9,41,0.00,,,0.00,pywws,2013-04-18 17:39:00,
2013-04-18 13:45:00,60.3,37.7,30.32,South,180,3.1,4.5,43,0.00,,,0.00,pywws,2013-04-18 17:45:00,
2013-04-18 13:51:00,61.0,36.5,30.32,SW,225,3.1,6.0,40,0.00,,,0.00,pywws,2013-04-18 17:51:00,
2013-04-18 13:56:00,60.6,35.5,30.32,SE,135,4.5,8.3,39,0.00,,,0.00,pywws,2013-04-18 17:56:00,
2013-04-18 14:02:00,59.7,35.4,30.32,WSW,248,1.6,2.2,40,0.00,,,0.00,pywws,2013-04-18 18:02:00,
2013-04-18 14:08:00,59.7,35.4,30.32,West,270,3.8,6.0,40,0.00,,,0.00,pywws,2013-04-18 18:08:00,
2013-04-18 14:14:00,59.0,35.3,30.32,WSW,248,2.2,4.5,41,0.00,,,0.00,pywws,2013-04-18 18:14:00,
2013-04-18 14:19:00,58.1,35.7,30.31,SW,225,1.6,3.1,43,0.00,,,0.00,pywws,2013-04-18 18:19:00,
2013-04-18 14:25:00,58.1,36.9,30.31,NW,315,2.2,4.5,45,0.00,,,0.00,pywws,2013-04-18 18:25:00,
2013-04-18 14:31:00,58.6,37.4,30.31,South,180,3.8,6.0,45,0.00,,,0.00,pywws,2013-04-18 18:31:00,
2013-04-18 14:36:00,58.6,37.4,30.31,NW,315,2.2,3.8,45,0.00,,,0.00,pywws,2013-04-18 18:36:00,
2013-04-18 14:42:00,58.8,37.5,30.31,South,180,2.2,3.8,45,0.00,,,0.00,pywws,2013-04-18 18:42:00,
2013-04-18 14:47:00,59.0,36.5,30.30,SW,225,2.2,3.8,43,0.00,,,0.00,pywws,2013-04-18 18:47:00,
2013-04-18 14:53:00,58.3,37.0,30.30,South,180,2.2,4.5,45,0.00,,,0.00,pywws,2013-04-18 18:53:00,
2013-04-18 14:59:00,58.3,37.0,30.30,NE,45,1.6,3.1,45,0.00,,,0.00,pywws,2013-04-18 18:59:00,
2013-04-18 15:04:00,58.8,38.1,30.30,North,0,1.6,3.1,46,0.00,,,0.00,pywws,2013-04-18 19:04:00,
2013-04-18 15:10:00,58.8,38.1,30.31,SW,225,1.6,3.1,46,0.00,,,0.00,pywws,2013-04-18 19:10:00,
2013-04-18 15:15:00,58.5,38.3,30.30,West,270,2.2,3.1,47,0.00,,,0.00,pywws,2013-04-18 19:15:00,
2013-04-18 15:21:00,57.7,37.6,30.30,South,180,2.2,3.8,47,0.00,,,0.00,pywws,2013-04-18 19:21:00,
2013-04-18 15:27:00,57.7,38.7,30.29,SW,225,3.1,4.5,49,0.00,,,0.00,pywws,2013-04-18 19:27:00,
2013-04-18 15:32:00,57.2,38.7,30.29,South,180,2.2,3.1,50,0.00,,,0.00,pywws,2013-04-18 19:32:00,
2013-04-18 15:38:00,57.2,39.2,30.29,South,180,3.1,5.4,51,0.00,,,0.00,pywws,2013-04-18 19:38:00,
2013-04-18 15:43:00,57.7,39.7,30.29,WSW,248,2.2,4.5,51,0.00,,,0.00,pywws,2013-04-18 19:43:00,
2013-04-18 15:49:00,58.3,40.7,30.28,West,270,2.2,3.8,52,0.00,,,0.00,pywws,2013-04-18 19:49:00,
2013-04-18 15:55:00,58.5,40.9,30.28,South,180,3.1,4.5,52,0.00,,,0.00,pywws,2013-04-18 19:55:00,
2013-04-18 16:00:00,58.3,40.7,30.28,SW,225,2.2,3.8,52,0.00,,,0.00,pywws,2013-04-18 20:00:00,
2013-04-18 16:06:00,58.6,42.0,30.27,SW,225,4.5,6.0,54,0.00,,,0.00,pywws,2013-04-18 20:06:00,
2013-04-18 16:11:00,58.5,42.4,30.27,West,270,3.8,5.4,55,0.00,,,0.00,pywws,2013-04-18 20:11:00,
2013-04-18 16:17:00,57.6,42.0,30.26,South,180,2.2,5.4,56,0.00,,,0.00,pywws,2013-04-18 20:17:00,
2013-04-18 16:23:00,57.4,41.8,30.26,SW,225,2.2,4.5,56,0.00,,,0.00,pywws,2013-04-18 20:23:00,
2013-04-18 16:28:00,57.2,42.1,30.26,NW,315,3.1,4.5,57,0.00,,,0.00,pywws,2013-04-18 20:28:00,
2013-04-18 16:34:00,57.2,42.6,30.26,NW,315,1.6,2.2,58,0.00,,,0.00,pywws,2013-04-18 20:34:00,
2013-04-18 16:39:00,57.2,43.0,30.26,East,90,1.6,2.2,59,0.00,,,0.00,pywws,2013-04-18 20:39:00,
2013-04-18 16:45:00,57.0,43.7,30.26,East,90,1.6,3.1,61,0.00,,,0.00,pywws,2013-04-18 20:45:00,
2013-04-18 16:51:00,56.7,44.2,30.25,SW,225,3.1,6.0,63,0.00,,,0.00,pywws,2013-04-18 20:51:00,
2013-04-18 16:56:00,56.3,44.7,30.26,South,180,3.1,4.5,65,0.00,,,0.00,pywws,2013-04-18 20:56:00,
2013-04-18 17:02:00,55.8,44.2,30.26,South,180,1.6,2.2,65,0.00,,,0.00,pywws,2013-04-18 21:02:00,
2013-04-18 17:08:00,55.4,44.2,30.26,South,180,1.6,2.2,66,0.00,,,0.00,pywws,2013-04-18 21:08:00,
2013-04-18 17:14:00,55.2,44.1,30.26,SW,225,3.8,4.5,66,0.00,,,0.00,pywws,2013-04-18 21:14:00,
2013-04-18 17:19:00,55.0,44.3,30.26,SE,135,2.2,3.8,67,0.00,,,0.00,pywws,2013-04-18 21:19:00,
2013-04-18 17:25:00,54.9,44.5,30.25,South,180,3.1,6.0,68,0.00,,,0.00,pywws,2013-04-18 21:25:00,
2013-04-18 17:31:00,54.7,44.3,30.25,SW,225,2.2,4.5,68,0.00,,,0.00,pywws,2013-04-18 21:31:00,
2013-04-18 17:36:00,54.7,44.7,30.25,SSW,202,2.2,3.8,69,0.00,,,0.00,pywws,2013-04-18 21:36:00,
2013-04-18 17:42:00,54.3,45.1,30.25,North,-999,3.1,4.5,71,0.00,,,0.00,pywws,2013-04-18 21:42:00,
2013-04-18 17:48:00,54.0,45.1,30.26,SW,225,2.2,3.8,72,0.00,,,0.00,pywws,2013-04-18 21:48:00,
2013-04-18 17:54:00,53.8,45.0,30.25,SW,225,1.6,3.1,72,0.00,,,0.00,pywws,2013-04-18 21:54:00,
2013-04-18 17:59:00,53.8,45.3,30.25,South,180,2.2,3.8,73,0.00,,,0.00,pywws,2013-04-18 21:59:00,
2013-04-18 18:05:00,53.6,45.2,30.25,West,270,1.6,2.2,73,0.00,,,0.00,pywws,2013-04-18 22:05:00,
2013-04-18 18:11:00,53.6,45.2,30.24,NE,45,0.0,1.6,73,0.00,,,0.00,pywws,2013-04-18 22:11:00,
2013-04-18 18:16:00,53.4,45.3,30.24,West,270,1.6,2.2,74,0.00,,,0.00,pywws,2013-04-18 22:16:00,
2013-04-18 18:22:00,53.4,45.7,30.24,West,270,1.6,3.1,75,0.00,,,0.00,pywws,2013-04-18 22:22:00,
2013-04-18 18:28:00,53.1,46.0,30.24,West,270,0.7,1.6,77,0.00,,,0.00,pywws,2013-04-18 22:28:00,
2013-04-18 18:34:00,52.7,46.0,30.24,South,180,2.2,3.8,78,0.00,,,0.00,pywws,2013-04-18 22:34:00,
2013-04-18 18:39:00,52.5,46.2,30.24,South,180,1.6,2.2,79,0.00,,,0.00,pywws,2013-04-18 22:39:00,
2013-04-18 18:45:00,52.5,46.5,30.24,South,180,1.6,2.2,80,0.00,,,0.00,pywws,2013-04-18 22:45:00,
2013-04-18 18:51:00,52.5,46.5,30.23,South,180,0.7,2.2,80,0.00,,,0.00,pywws,2013-04-18 22:51:00,
2013-04-18 18:56:00,52.5,46.5,30.23,South,180,1.6,2.2,80,0.00,,,0.00,pywws,2013-04-18 22:56:00,
2013-04-18 19:02:00,52.5,46.2,30.23,South,180,1.6,2.2,79,0.00,,,0.00,pywws,2013-04-18 23:02:00,
2013-04-18 19:08:00,52.5,46.2,30.23,South,180,2.2,3.8,79,0.00,,,0.00,pywws,2013-04-18 23:08:00,
2013-04-18 19:14:00,52.5,46.2,30.23,South,180,0.7,2.2,79,0.00,,,0.00,pywws,2013-04-18 23:14:00,
2013-04-18 19:19:00,52.5,46.2,30.23,North,0,1.6,3.1,79,0.00,,,0.00,pywws,2013-04-18 23:19:00,
2013-04-18 19:25:00,52.5,46.2,30.23,South,180,1.6,3.8,79,0.00,,,0.00,pywws,2013-04-18 23:25:00,
2013-04-18 19:31:00,52.5,46.2,30.22,SW,225,1.6,3.1,79,0.00,,,0.00,pywws,2013-04-18 23:31:00,
2013-04-18 19:36:00,52.5,46.2,30.23,West,270,1.6,2.2,79,0.00,,,0.00,pywws,2013-04-18 23:36:00,
2013-04-18 19:42:00,52.3,46.0,30.22,West,270,1.6,3.1,79,0.00,,,0.00,pywws,2013-04-18 23:42:00,
2013-04-18 19:48:00,52.3,46.0,30.22,SW,225,2.2,3.8,79,0.00,,,0.00,pywws,2013-04-18 23:48:00,
2013-04-18 19:54:00,52.3,46.0,30.22,NE,45,1.6,2.2,79,0.00,,,0.00,pywws,2013-04-18 23:54:00,
2013-04-18 19:59:00,52.3,46.0,30.22,West,270,1.6,2.2,79,0.00,,,0.00,pywws,2013-04-18 23:59:00,
2013-04-18 20:05:00,52.2,46.2,30.22,West,270,0.7,3.1,80,0.00,,,0.00,pywws,2013-04-19 00:05:00,
2013-04-18 20:11:00,52.2,46.2,30.21,West,270,1.6,2.2,80,0.00,,,0.00,pywws,2013-04-19 00:11:00,
2013-04-18 20:16:00,52.2,46.5,30.21,North,0,0.7,1.6,81,0.00,,,0.00,pywws,2013-04-19 00:16:00,
2013-04-18 20:22:00,52.2,46.8,30.20,NE,45,0.7,1.6,82,0.00,,,0.00,pywws,2013-04-19 00:22:00,
2013-04-18 20:28:00,52.0,46.7,30.22,SW,225,1.6,2.2,82,0.00,,,0.00,pywws,2013-04-19 00:28:00,
2013-04-18 20:34:00,52.0,47.0,30.21,NW,315,1.6,2.2,83,0.00,,,0.00,pywws,2013-04-19 00:34:00,
2013-04-18 20:39:00,52.0,47.0,30.20,SW,225,1.6,2.2,83,0.00,,,0.00,pywws,2013-04-19 00:39:00,
2013-04-18 20:45:00,51.8,46.8,30.20,SW,225,2.2,3.1,83,0.00,,,0.00,pywws,2013-04-19 00:45:00,
2013-04-18 20:51:00,51.8,47.1,30.20,SW,225,1.6,2.2,84,0.00,,,0.00,pywws,2013-04-19 00:51:00,
2013-04-18 20:56:00,51.8,47.1,30.20,South,180,1.6,2.2,84,0.00,,,0.00,pywws,2013-04-19 00:56:00,
2013-04-18 21:02:00,51.8,47.1,30.19,North,0,0.7,1.6,84,0.00,,,0.00,pywws,2013-04-19 01:02:00,
2013-04-18 21:08:00,51.8,47.1,30.19,West,270,1.6,3.8,84,0.00,,,0.00,pywws,2013-04-19 01:08:00,
2013-04-18 21:14:00,51.8,47.4,30.19,South,180,2.2,4.5,85,0.00,,,0.00,pywws,2013-04-19 01:14:00,
2013-04-18 21:19:00,51.8,47.4,30.19,West,270,0.0,1.6,85,0.00,,,0.00,pywws,2013-04-19 01:19:00,
2013-04-18 21:25:00,51.8,47.4,30.18,West,270,1.6,2.2,85,0.00,,,0.00,pywws,2013-04-19 01:25:00,
2013-04-18 21:31:00,51.8,47.4,30.18,NE,45,0.0,0.7,85,0.00,,,0.00,pywws,2013-04-19 01:31:00,
2013-04-18 21:36:00,52.0,47.6,30.18,SE,135,0.7,3.1,85,0.00,,,0.00,pywws,2013-04-19 01:36:00,
2013-04-18 21:42:00,52.0,47.6,30.18,WSW,248,0.7,3.1,85,0.00,,,0.00,pywws,2013-04-19 01:42:00,
2013-04-18 21:48:00,52.0,47.6,30.17,South,180,0.7,1.6,85,0.00,,,0.00,pywws,2013-04-19 01:48:00,
2013-04-18 21:54:00,52.2,48.1,30.17,East,90,0.7,1.6,86,0.00,,,0.00,pywws,2013-04-19 01:54:00,
2013-04-18 21:59:00,52.2,48.1,30.17,East,90,0.7,1.6,86,0.00,,,0.00,pywws,2013-04-19 01:59:00,
2013-04-18 22:05:00,52.2,48.1,30.17,South,180,0.7,2.2,86,0.00,,,0.00,pywws,2013-04-19 02:05:00,
2013-04-18 22:11:00,52.3,48.6,30.17,South,180,1.6,2.2,87,0.00,,,0.00,pywws,2013-04-19 02:11:00,
2013-04-18 22:16:00,52.3,48.6,30.17,South,180,1.6,3.1,87,0.00,,,0.00,pywws,2013-04-19 02:16:00,
2013-04-18 22:22:00,52.3,48.6,30.17,South,180,2.2,3.8,87,0.00,,,0.00,pywws,2013-04-19 02:22:00,
2013-04-18 22:28:00,52.3,48.9,30.16,SE,135,2.2,3.1,88,0.00,,,0.00,pywws,2013-04-19 02:28:00,
2013-04-18 22:34:00,52.3,48.9,30.16,NE,45,0.7,2.2,88,0.00,,,0.00,pywws,2013-04-19 02:34:00,
2013-04-18 22:39:00,52.3,48.9,30.16,NW,315,0.7,2.2,88,0.00,,,0.00,pywws,2013-04-19 02:39:00,
2013-04-18 22:45:00,52.3,49.2,30.15,SW,225,1.6,3.1,89,0.00,,,0.00,pywws,2013-04-19 02:45:00,
2013-04-18 22:51:00,52.3,49.2,30.15,SW,225,1.6,3.1,89,0.00,,,0.00,pywws,2013-04-19 02:51:00,
2013-04-18 22:56:00,52.3,49.5,30.15,SW,225,2.2,3.1,90,0.00,,,0.00,pywws,2013-04-19 02:56:00,
2013-04-18 23:02:00,52.3,49.8,30.15,SW,225,2.2,3.1,91,0.00,,,0.00,pywws,2013-04-19 03:02:00,
2013-04-18 23:07:00,52.3,50.1,30.15,NE,45,1.6,2.2,92,0.00,,,0.00,pywws,2013-04-19 03:07:00,
2013-04-18 23:13:00,52.5,50.3,30.15,East,90,0.7,1.6,92,0.00,,,0.00,pywws,2013-04-19 03:13:00,
2013-04-18 23:19:00,52.5,50.3,30.15,South,180,0.7,2.2,92,0.00,,,0.00,pywws,2013-04-19 03:19:00,
2013-04-18 23:24:00,52.5,50.6,30.15,South,180,0.7,2.2,93,0.00,,,0.00,pywws,2013-04-19 03:24:00,
2013-04-18 23:30:00,52.5,50.6,30.14,SW,225,2.2,5.4,93,0.00,,,0.00,pywws,2013-04-19 03:30:00,
2013-04-18 23:35:00,52.7,51.0,30.14,East,90,0.7,2.2,94,0.00,,,0.00,pywws,2013-04-19 03:35:00,
2013-04-18 23:41:00,52.7,51.3,30.14,South,180,1.6,3.1,95,0.00,,,0.00,pywws,2013-04-19 03:41:00,
2013-04-18 23:47:00,52.7,51.3,30.14,SW,225,1.6,2.2,95,0.00,,,0.00,pywws,2013-04-19 03:47:00,
2013-04-18 23:53:00,52.7,51.6,30.13,East,90,1.6,3.8,96,0.00,,,0.00,pywws,2013-04-19 03:53:00,
2013-04-18 23:59:00,52.7,51.6,30.13,NW,315,0.7,2.2,96,0.00,,,0.00,pywws,2013-04-19 03:59:00,